Printer-friendly version

IAU Minor Planet Center

Minor Planet Center

(62818) 2000 US45

Orbital Elements

The following orbital elements are taken from MPO101942
 (62818) 2000 US45
Epoch 2007 Oct. 27.0 TT = JDT 2454400.5                 MPC
M 225.68561              (2000.0)            P               Q
n   0.26262331     Peri.   72.36741     -0.82528830     -0.56138748
a   2.4149818      Node    73.43978     +0.49090060     -0.76674885
e   0.1148384      Incl.    3.65969     +0.27913406     -0.31135237
P   3.75           H   16.3           G   0.15           U   2
From 63 observations at 5 oppositions, 1994-2006, mean residual 0".65.
An explanation of the orbital elements is available.

These orbital elements are also available in forms suitable for loading into a number of popular planetarium-type software programs.


Ephemeris

The following ephemeris is at intervals of five days. A daily ephemeris covering the same time interval is also available.

Personalized ephemerides for this (and other) objects may be generated using the Minor Planet & Comet Ephemeris Service.

Date    TT    R. A. (2000) Decl.     Delta      r     Elong.  Phase     V
2009 10 26    14 10.53   -11 28.6    3.284    2.291     2.4     1.0    20.8

2010 04 14    18 58.20   -23 16.4    2.118    2.503   100.5    23.2    21.0
2010 04 19    19 01.72   -23 18.0    2.060    2.508   104.6    22.8    21.0
2010 04 24    19 04.62   -23 20.5    2.003    2.514   108.8    22.3    20.9
2010 04 29    19 06.87   -23 24.3    1.948    2.520   113.1    21.6    20.8
2010 05 04    19 08.43   -23 29.4    1.895    2.525   117.6    20.7    20.7
2010 05 09    19 09.26   -23 35.9    1.843    2.531   122.3    19.7    20.6
2010 05 14    19 09.35   -23 44.0    1.795    2.536   127.1    18.5    20.5
2010 05 19    19 08.66   -23 53.7    1.750    2.542   132.1    17.2    20.4
2010 05 24    19 07.21   -24 04.7    1.709    2.547   137.3    15.6    20.3
2010 05 29    19 05.00   -24 16.9    1.672    2.552   142.6    14.0    20.2
2010 06 03    19 02.06   -24 30.2    1.640    2.558   148.0    12.1    20.1
2010 06 08    18 58.45   -24 44.1    1.613    2.563   153.7    10.1    20.0
2010 06 13    18 54.23   -24 58.2    1.592    2.568   159.4     8.0    19.9
2010 06 18    18 49.52   -25 12.1    1.577    2.573   165.2     5.8    19.8
2010 06 23    18 44.45   -25 25.4    1.569    2.577   171.0     3.6    19.7
2010 06 28    18 39.17   -25 37.6    1.567    2.582   176.3     1.5    19.5
2010 07 03    18 33.82   -25 48.5    1.572    2.587   175.9     1.6    19.6
2010 07 08    18 28.56   -25 57.9    1.583    2.591   170.4     3.7    19.7
2010 07 13    18 23.56   -26 05.6    1.602    2.596   164.7     5.9    19.9
2010 07 18    18 18.95   -26 11.8    1.626    2.600   158.9     8.1    20.0
2010 07 23    18 14.86   -26 16.4    1.657    2.605   153.3    10.1    20.1
2010 07 28    18 11.39   -26 19.7    1.693    2.609   147.7    12.0    20.3
2010 08 02    18 08.59   -26 21.9    1.735    2.613   142.4    13.7    20.4
2010 08 07    18 06.52   -26 23.2    1.781    2.617   137.1    15.3    20.5
2010 08 12    18 05.19   -26 23.8    1.832    2.621   132.0    16.7    20.6
2010 08 17    18 04.63   -26 23.8    1.887    2.625   127.1    17.9    20.7
2010 08 22    18 04.82   -26 23.3    1.944    2.629   122.4    19.0    20.8
2010 08 27    18 05.73   -26 22.5    2.005    2.632   117.8    19.9    20.9
2010 09 01    18 07.32   -26 21.3    2.068    2.636   113.3    20.6    21.0

Valid HTML 4.01!